[[{"header":{"parameterUnit":"m.s-1","parameterCategory":1,"la1":30.2991,"la2":30.254,"lo1":-89.0895,"lo2":-89.0444,"dy":0.0017,"dx":0.0017,"nx":28,"ny":28,"refTime":"2024-03-29T21:00:00:Z","depth":0,"parameterNumber":2,"parameterNumberName":"U-component_of_WINDS"},"data":[0,0,0,0,0,0,0,0,0,0,0,0,0,0,0,0,0,0,0,0,0,0,0,0,0,0,0,0,0,0,0,0,0,0,0,0,0,0,0,0,0,0,0,0,0,0,0,0,0,0,0,0,0,0,0,0,0,0,-2.1699,-2.1698,0,-2.1639,-2.1638,-2.1638,-2.154,-2.1538,-2.1536,-2.1535,-2.1473,-2.1473,-2.1473,0,0,0,0,0,0,0,0,0,0,0,0,0,-2.173,-2.173,-2.1699,-2.1698,-2.1697,-2.1639,-2.1638,-2.1637,-2.154,-2.1538,-2.1536,-2.1534,-2.1473,-2.1473,-2.1473,0,0,0,0,0,0,0,0,0,0,0,0,0,-2.1698,-2.173,-2.1699,-2.1642,-2.1636,-2.1639,-2.1638,-2.1637,-2.1541,-2.1538,-2.1535,-2.1533,-2.1473,-2.1473,-2.1473,-2.1527,0,0,-2.1473,-2.1473,0,0,0,0,0,0,0,0,-2.17,-2.1697,-2.1651,-2.1646,-2.164,-2.1594,-2.1626,-2.16,-2.1541,-2.1577,-2.1535,-2.1532,-2.1516,-2.1512,-2.1506,-2.1524,-2.1521,-2.1473,-2.1473,-2.1473,-2.1473,0,0,0,0,0,0,0,-2.1702,-2.1699,-2.1675,-2.1651,-2.1644,-2.162,-2.1612,-2.1621,-2.1562,-2.1574,-2.1567,-2.1561,-2.1512,-2.1507,-2.1504,-2.152,-2.1473,-2.1473,-2.1473,-2.1473,-2.1579,-2.1581,0,0,0,0,0,0,-2.1713,-2.1702,-2.1677,-2.1673,-2.1664,-2.1621,-2.1613,-2.1611,-2.1562,-2.1551,-2.1563,-2.1556,-2.1508,-2.1504,-2.1502,-2.156,-2.1473,-2.1473,-2.1473,-2.1576,-2.1579,-2.1582,0,0,0,0,0,0,-2.1714,-2.1712,-2.1679,-2.1685,-2.168,-2.1624,-2.1623,-2.1612,-2.1606,-2.1554,-2.1543,-2.1569,-2.1506,-2.1502,-2.1521,-2.1557,-2.1473,-2.1473,-2.1573,-2.1577,-2.1581,-2.1679,0,0,0,0,0,0,-2.1715,-2.1713,-2.1732,-2.1687,-2.168,-2.17,-2.1625,-2.1612,-2.1607,-2.1597,-2.1556,-2.1546,-2.1503,-2.1522,-2.1521,-2.1555,-2.1473,-2.1569,-2.1575,-2.158,-2.1672,-2.1686,-2.1698,0,0,0,0,0,-2.1717,-2.1762,-2.1734,-2.1731,-2.1703,-2.1702,-2.1698,-2.1648,-2.161,-2.1629,-2.1596,-2.1548,-2.1554,-2.1525,-2.1523,-2.1558,-2.1567,-2.1573,-2.1579,-2.1666,-2.1683,-2.1697,0,0,0,0,0,0,-2.1813,-2.1755,-2.1723,-2.1755,-2.1734,-2.1686,-2.1708,-2.1667,-2.1657,-2.1648,-2.1586,-2.1578,-2.1605,-2.1584,-2.1552,-2.1607,-2.1553,-2.1559,-2.162,-2.1635,-2.1648,-2.1651,-2.1473,0,0,0,0,0,-2.1838,-2.1842,-2.1792,-2.1825,-2.1816,-2.1765,-2.1762,-2.1726,-2.1702,-2.1692,-2.166,-2.1639,-2.1635,-2.1635,-2.1629,-2.167,-2.1659,-2.1693,-2.1706,-2.1717,-2.1722,-2.1741,-2.1756,-2.1603,-2.1603,-2.1603,0,0,-2.1889,-2.1858,-2.1864,-2.1843,-2.1823,-2.1829,-2.1758,-2.1767,-2.177,-2.1693,-2.1709,-2.1686,-2.1658,-2.1688,-2.17,-2.1671,-2.1762,-2.1725,-2.1734,-2.1733,-2.1749,-2.1764,-2.1777,-2.1607,-2.1606,-2.1606,0,0,-2.1985,-2.1963,-2.1987,-2.1969,-2.1939,-2.1905,-2.1912,-2.187,-2.1851,-2.1866,-2.1809,-2.1813,-2.1809,-2.1791,-2.1782,-2.1874,-2.1829,-2.1874,-2.194,-2.1959,-2.1971,-2.1982,-2.2013,-2.2025,-2.188,-2.188,-2.1881,0,-2.2052,-2.2058,-2.2005,-2.2018,-2.201,-2.1942,-2.1967,-2.1952,-2.1922,-2.1918,-2.1887,-2.1881,-2.1858,-2.1883,-2.1905,-2.1901,-2.1905,-2.1877,-2.1974,-2.1984,-2.1993,-2.2022,-2.2034,-2.1886,-2.1885,-2.1885,-2.1884,0,-2.2142,-2.2148,-2.2171,-2.2144,-2.214,-2.2158,-2.2108,-2.211,-2.2075,-2.2044,-2.2061,-2.2031,-2.2018,-2.2022,-2.1987,-2.2042,-2.2025,-2.1985,-2.1928,-2.2014,-2.204,-2.2051,-2.1894,-2.1892,-2.189,-2.1889,0,0,-2.2294,-2.2239,-2.2248,-2.2235,-2.2199,-2.2202,-2.2218,-2.2206,-2.2208,-2.2191,-2.2202,-2.2202,-2.2165,-2.2154,-2.2118,-2.2135,-2.2209,-2.2093,-2.2091,-2.2114,-2.2266,-2.2295,-2.2309,-2.218,-2.2182,-2.2184,-2.2268,0,-2.238,-2.2404,-2.2358,-2.2393,-2.2397,-2.2334,-2.2348,-2.2327,-2.23,-2.2299,-2.2269,-2.2269,-2.2221,-2.2214,-2.2229,-2.2197,-2.2238,-2.219,-2.2189,-2.219,-2.2195,-2.2323,-2.2353,-2.2434,-2.2278,-2.228,-2.2281,0,-2.2483,-2.2472,-2.2507,-2.2469,-2.2469,-2.2482,-2.2467,-2.2469,-2.2444,-2.2423,-2.2413,-2.237,-2.2383,-2.2331,-2.2349,-2.2317,-2.2314,-2.2299,-2.2301,-2.2296,-2.2239,-2.232,-2.2458,-2.247,-2.2297,-2.2296,-2.2295,0,-2.2588,-2.2582,-2.2602,-2.2593,-2.255,-2.256,-2.2543,-2.2516,-2.2512,-2.25,-2.2496,-2.2486,-2.248,-2.2473,-2.2428,-2.2395,-2.2451,-2.2395,-2.2433,-2.2434,-2.2445,-2.2444,-2.2582,-2.2448,-2.2447,-2.2447,-2.2447,0,-2.2688,-2.2712,-2.2648,-2.266,-2.2685,-2.2633,-2.2659,-2.2635,-2.2613,-2.2619,-2.2565,-2.2572,-2.2514,-2.2515,-2.2481,-2.25,-2.2498,-2.2481,-2.2471,-2.2484,-2.2486,-2.248,-2.2472,-2.245,-2.245,-2.2449,-2.2449,0,-2.2808,-2.2767,-2.2784,-2.2742,-2.2732,-2.2753,-2.2717,-2.2726,-2.2696,-2.2705,-2.2705,-2.2657,-2.2656,-2.2612,-2.2601,-2.2578,-2.2611,-2.2592,-2.2619,-2.2612,-2.2651,-2.2647,-2.2787,-2.2803,-2.2661,-2.2662,-2.2664,0,-2.2873,-2.289,-2.2851,-2.2851,-2.2836,-2.2838,-2.2834,-2.2784,-2.2781,-2.2756,-2.2769,-2.2763,-2.2756,-2.2757,-2.2721,-2.2713,-2.2692,-2.2742,-2.269,-2.2703,-2.269,-2.2689,-2.269,-2.2752,-2.2754,-2.2755,-2.2757,0,-2.2993,-2.2972,-2.2968,-2.2957,-2.2953,-2.2942,-2.2928,-2.2932,-2.2877,-2.2877,-2.2875,-2.287,-2.286,-2.2854,-2.284,-2.2822,-2.278,-2.2774,-2.2782,-2.2794,-2.2808,-2.2799,-2.2646,-2.277,-2.2769,-2.2768,-2.2767,-2.2766,-2.3086,-2.3098,-2.3072,-2.3069,-2.3053,-2.3041,-2.3048,-2.302,-2.3017,-2.3005,-2.2976,-2.2979,-2.2955,-2.2932,-2.2918,-2.2919,-2.2894,-2.2905,-2.2908,-2.2911,-2.2918,-2.2811,-2.2917,-2.2916,-2.2916,-2.2915,-2.2915,0,-2.3201,-2.3182,-2.318,-2.3161,-2.316,-2.3122,-2.3105,-2.3105,-2.3108,-2.309,-2.3084,-2.3083,-2.3078,-2.3043,-2.3035,-2.3042,-2.3023,-2.3042,-2.3039,-2.3035,-2.2942,-2.2935,-2.3057,-2.3057,-2.3057,-2.3057,-2.3057,-2.3057,-2.326,-2.3278,-2.3254,-2.3264,-2.3245,-2.3247,-2.324,-2.3229,-2.3214,-2.3214,-2.321,-2.3188,-2.3163,-2.3153,-2.3147,-2.3137,-2.3135,-2.316,-2.3143,-2.3056,-2.3042,-2.3029,-2.3022,-2.3161,-2.3161,-2.3236,-2.3237,-2.3237]},{"header":{"parameterUnit":"m.s-1","parameterCategory":1,"la1":30.2991,"la2":30.254,"lo1":-89.0895,"lo2":-89.0444,"dy":0.0017,"dx":0.0017,"nx":28,"ny":28,"refTime":"2024-03-29T21:00:00:Z","depth":0,"parameterNumber":3,"parameterNumberName":"V-component_of_WINDS"},"data":[0,0,0,0,0,0,0,0,0,0,0,0,0,0,0,0,0,0,0,0,0,0,0,0,0,0,0,0,0,0,0,0,0,0,0,0,0,0,0,0,0,0,0,0,0,0,0,0,0,0,0,0,0,0,0,0,0,0,2.1051,2.1052,0,2.1129,2.113,2.1131,2.1214,2.1215,2.1216,2.1217,2.1296,2.1297,2.1298,0,0,0,0,0,0,0,0,0,0,0,0,0,2.0975,2.0976,2.1051,2.1052,2.1053,2.1129,2.113,2.1131,2.1213,2.1215,2.1216,2.1218,2.1296,2.1297,2.1298,0,0,0,0,0,0,0,0,0,0,0,0,0,2.1026,2.0976,2.1051,2.1104,2.1109,2.1129,2.113,2.1131,2.1213,2.1215,2.1217,2.1218,2.1295,2.1297,2.1298,2.1272,0,0,2.1303,2.1303,0,0,0,0,0,0,0,0,2.1023,2.1029,2.1095,2.11,2.1106,2.1163,2.1132,2.1179,2.1213,2.1174,2.1217,2.1219,2.125,2.1256,2.1266,2.1276,2.1279,2.1303,2.1304,2.1304,2.1305,0,0,0,0,0,0,0,2.1019,2.1026,2.1082,2.1096,2.1103,2.1123,2.1133,2.1141,2.1201,2.1177,2.1183,2.1191,2.1254,2.1265,2.1269,2.128,2.1303,2.1304,2.1305,2.1306,2.1275,2.1273,0,0,0,0,0,0,2.1008,2.1022,2.108,2.1084,2.1068,2.1123,2.1134,2.1143,2.1201,2.1212,2.119,2.1195,2.1261,2.1267,2.1272,2.1247,2.1304,2.1306,2.1307,2.1276,2.1274,2.1273,0,0,0,0,0,0,2.1006,2.1012,2.1077,2.1055,2.1065,2.1123,2.1133,2.1144,2.1155,2.1211,2.1222,2.119,2.1263,2.127,2.1272,2.1251,2.1307,2.1308,2.1279,2.1276,2.1273,2.1196,0,0,0,0,0,0,2.1003,2.1011,2.1002,2.1054,2.1066,2.1075,2.1132,2.1144,2.1157,2.1165,2.1214,2.1224,2.1265,2.1269,2.1274,2.1254,2.1309,2.1281,2.1277,2.1274,2.1201,2.1191,2.1183,0,0,0,0,0,2.1,2.0976,2.1001,2.1007,2.1055,2.1074,2.108,2.1128,2.1155,2.1147,2.1183,2.1222,2.1252,2.1269,2.1274,2.1255,2.1282,2.1278,2.1275,2.1205,2.1193,2.1183,0,0,0,0,0,0,2.0919,2.0984,2.1012,2.1004,2.1033,2.1088,2.1078,2.1114,2.1135,2.1141,2.12,2.121,2.1206,2.123,2.1248,2.1234,2.1273,2.127,2.1218,2.1208,2.1199,2.1194,2.131,0,0,0,0,0,2.09,2.091,2.0966,2.0954,2.0967,2.102,2.103,2.1064,2.1096,2.1109,2.1145,2.1174,2.1191,2.12,2.1218,2.1204,2.1217,2.1194,2.1185,2.1177,2.1175,2.1171,2.1162,2.126,2.126,2.126,0,0,2.0862,2.0898,2.0901,2.0939,2.0965,2.0974,2.1029,2.1036,2.1044,2.111,2.1115,2.1142,2.1179,2.1173,2.1173,2.1194,2.115,2.1172,2.1166,2.1168,2.1166,2.1157,2.1149,2.1257,2.1258,2.1258,0,0,2.0797,2.0824,2.0818,2.0844,2.0883,2.0919,2.0917,2.0966,2.0988,2.0993,2.1043,2.1053,2.1079,2.1104,2.112,2.1065,2.1103,2.1069,2.1023,2.1019,2.1011,2.1005,2.0987,2.0979,2.1065,2.1065,2.1065,0,2.0744,2.076,2.0811,2.0815,2.0831,2.0891,2.0886,2.0907,2.095,2.096,2.0983,2.1018,2.1047,2.1049,2.1036,2.1046,2.1047,2.1064,2.1008,2.1002,2.0997,2.098,2.0973,2.1061,2.1062,2.1062,2.1062,0,2.0694,2.0704,2.0694,2.0735,2.0749,2.0748,2.08,2.0808,2.0841,2.0874,2.088,2.0917,2.0944,2.0947,2.0979,2.0954,2.0966,2.0997,2.1038,2.0982,2.0968,2.0962,2.1055,2.1057,2.1058,2.1059,0,0,2.0581,2.065,2.0646,2.0666,2.0713,2.0723,2.0725,2.0752,2.0759,2.0786,2.079,2.0811,2.0841,2.0859,2.0895,2.089,2.0847,2.0923,2.0925,2.0909,2.0824,2.0801,2.0793,2.0871,2.087,2.0869,2.0822,0,2.0525,2.0534,2.058,2.0575,2.0586,2.0643,2.0645,2.0675,2.0706,2.072,2.0754,2.0769,2.0806,2.0818,2.0816,2.0852,2.0831,2.0856,2.0877,2.0877,2.0868,2.0786,2.0762,2.0715,2.0816,2.0815,2.0814,0,2.0463,2.0487,2.0483,2.0532,2.0539,2.054,2.0569,2.0581,2.0616,2.0639,2.0659,2.0699,2.0705,2.0742,2.0752,2.0769,2.078,2.0799,2.0798,2.0804,2.0844,2.0791,2.0701,2.0694,2.0806,2.0806,2.0807,0,2.0383,2.0415,2.0417,2.0432,2.0489,2.0489,2.0512,2.0549,2.0563,2.0588,2.0598,2.0623,2.0637,2.0656,2.0702,2.0724,2.0707,2.0747,2.0727,2.0726,2.0723,2.0723,2.0636,2.0726,2.0726,2.0726,2.0727,0,2.0318,2.0314,2.0383,2.0384,2.0382,2.0435,2.0431,2.046,2.0492,2.0501,2.0551,2.0558,2.0617,2.0631,2.0666,2.067,2.0676,2.0695,2.0705,2.0692,2.069,2.0701,2.0707,2.0725,2.0725,2.0725,2.0726,0,2.023,2.0275,2.0282,2.0335,2.0348,2.0344,2.039,2.0394,2.0428,2.0438,2.0444,2.0497,2.0516,2.0563,2.0594,2.0618,2.0613,2.063,2.0602,2.0608,2.0587,2.0589,2.0506,2.0498,2.0591,2.059,2.0589,0,2.0186,2.0185,2.0238,2.0248,2.0269,2.0284,2.0298,2.035,2.0363,2.0403,2.0403,2.0426,2.0447,2.0475,2.0517,2.0541,2.056,2.0529,2.0564,2.0552,2.0562,2.0563,2.0564,2.0522,2.0521,2.052,2.0519,0,2.0105,2.0128,2.0147,2.0174,2.019,2.0214,2.024,2.0245,2.0304,2.0316,2.0336,2.0353,2.0385,2.0408,2.0439,2.0464,2.0501,2.0507,2.0505,2.0492,2.0477,2.0487,2.0583,2.0509,2.051,2.0511,2.0512,2.0512,2.004,2.0042,2.008,2.01,2.0125,2.0149,2.0156,2.0191,2.0209,2.024,2.0269,2.0286,2.0322,2.0368,2.039,2.0405,2.0424,2.0419,2.0419,2.0417,2.0412,2.0472,2.041,2.0411,2.0411,2.0411,2.0412,0,1.9964,1.9991,2.0008,2.0044,2.006,2.0094,2.0125,2.0136,2.0151,2.0182,2.0202,2.0226,2.0248,2.0291,2.0318,2.0322,2.034,2.0327,2.0329,2.0334,2.0393,2.0393,2.0312,2.0312,2.0312,2.0312,2.0312,2.0312,1.9926,1.9932,1.9959,1.9978,2.0005,2.0024,2.0039,2.0061,2.0086,2.0111,2.013,2.0158,2.0194,2.0223,2.0245,2.0258,2.0266,2.0248,2.0266,2.032,2.033,2.0339,2.034,2.0249,2.0249,2.0207,2.0206,2.0206]}]]